Tracking 29892 objects as of 21-Nov-2024
HD Live streaming from Space Station
objects crossing your sky now

SAUDICOMSAT 7

Track SAUDICOMSAT 7 now!
10-day predictions
SAUDICOMSAT 7 is classified as:


NORAD ID: 31119
Int'l Code: 2007-012C
Perigee: 645.5 km
Apogee: 725.3 km
Inclination: 98.3 °
Period: 98.3 minutes
Semi major axis: 7056 km
RCS: 0.0759 m2 (small)
Launch date: April 17, 2007
Source: Saudi Arabia (SAUD)
Launch site: TYURATAM MISSILE AND SPACE COMPLEX (TTMTR)
Your satellite tracking list
Your tracking list is empty




NASA's NSSDC Master Catalog

Two Line Element Set (TLE):
1 31119U 07012C   24325.11468300  .00001530  00000-0  29093-3 0  9999
2 31119  98.2996 279.8003 0056563 194.3139 165.6464 14.64633263938352
Source of the keplerian elements: AFSPC